Temp
14 14 14 14 14 14 14 14 15 15 15 16 16 16 16 17 17 17 17 17 17 17 17 17 17 17 17 17 14 15 16 16 16 17 17 17 17 14 11 10 10 9 8 8 8 8 8
13 13 14 14 14 14 14 14 15 15 15 16 16 16 17 17 17 17 17 17 17 17 17 17 17 17 17 13 14 15 16 15 16 17 16 17 15 15 12 9 9 8 8 7 8 8 8
13 13 13 13 14 14 14 14 15 15 15 16 16 17 17 17 17 17 17 18 17 17 17 17 17 17 17 14 14 15 15 15 16 16 16 15 15 15 12 9 9 9 10 8 7 7 8
13 13 13 13 13 14 14 15 15 15 16 16 16 17 17 17 17 17 17 17 17 17 17 17 17 17 16 15 15 15 15 15 15 15 15 15 14 14 11 10 9 9 8 10 7 6 7
12 13 13 13 13 14 14 15 15 15 16 16 16 17 17 17 17 18 17 17 17 18 17 17 17 17 16 16 15 15 15 15 15 15 15 15 15 11 9 8 9 6 10 10 8 5 5
13 12 13 13 14 14 14 15 15 15 16 16 16 17 17 17 17 17 18 18 17 17 17 17 17 17 16 14 14 14 15 15 15 15 15 15 13 5 3 5 7 10 9 7 7 5 4
13 13 13 13 13 14 14 15 15 15 16 16 16 17 17 17 17 18 17 18 17 17 17 14 14 13 14 14 14 14 16 15 14 14 8 9 5 5 5 5 6 7 7 6 5 3 4
12 13 13 13 13 14 14 14 15 16 16 16 16 17 17 17 17 18 17 18 17 16 13 14 14 13 13 13 14 14 15 15 12 8 7 7 7 6 5 5 6 6 6 4 5 4 2
13 13 13 13 13 14 14 15 15 16 16 17 17 17 17 17 17 17 17 17 16 16 15 13 13 13 12 13 12 12 12 11 8 7 4 8 7 5 6 5 5 6 5 5 3 2 2
13 13 13 13 13 14 14 15 15 16 16 16 17 16 17 17 16 16 16 16 16 15 10 13 13 13 13 13 11 11 11 11 8 8 5 5 5 5 6 6 5 5 4 3 2 0 4
13 13 13 13 13 14 14 15 15 16 16 16 17 16 17 17 16 16 16 16 16 15 11 13 12 13 13 13 11 12 11 11 8 7 7 8 5 5 7 6 4 5 3 2 2 -4 -3
12 13 12 13 13 13 14 14 15 16 16 16 16 16 17 17 16 16 16 16 15 9 11 13 11 9 11 11 11 11 11 11 8 7 5 4 3 3 3 2 3 2 2 2 -1 -2 3
12 12 13 13 13 13 13 14 15 15 16 16 16 16 16 16 16 16 15 15 10 10 12 12 10 8 8 8 9 6 5 -0 3 8 6 6 5 2 2 4 3 0 1 3 5 3 6
12 12 12 13 13 13 13 14 14 15 16 16 16 16 16 16 15 15 15 11 15 13 11 8 9 9 11 7 8 6 6 4 1 3 1 4 8 3 0 -1 1 1 -1 2 6 5 5
12 12 12 12 13 13 13 13 14 14 15 16 16 16 16 15 15 15 14 7 10 10 8 8 9 10 10 9 8 7 4 0 -1 -3 6 3 7 0 -0 -0 -1 2 1 0 -3 -6 -2
11 11 12 12 12 12 12 13 13 14 15 16 16 15 15 15 15 15 9 8 8 6 7 7 11 9 11 8 9 7 7 -0 0 -1 -1 2 3 3 -1 -0 -1 -1 -2 1 -3 3 3
11 11 11 11 11 11 12 12 13 14 15 15 16 15 14 15 15 15 5 4 6 6 7 8 9 8 5 6 7 7 5 3 2 0 -0 -5 -1 5 1 0 -1 -2 -4 -4 -3 -2 1
10 10 10 10 10 10 10 11 12 13 14 15 15 12 14 15 12 3 4 6 7 6 6 6 5 3 5 7 7 7 7 6 3 2 -0 -3 -2 0 5 -7 -9 -6 -4 -4 5 4 -0
9 9 9 9 10 10 9 10 11 12 13 13 13 13 13 14 4 4 5 6 6 6 6 6 7 6 4 7 6 6 7 2 2 1 -1 -1 1 5 6 -1 -5 -5 -8 -10 -5 -0 2
7 8 8 9 9 9 9 9 10 10 11 12 12 5 12 12 7 3 7 8 7 6 6 6 6 5 5 6 4 5 6 2 2 2 2 2 -1 4 8 7 3 3 -2 -9 1 2 4
7 7 8 8 8 8 8 8 9 9 10 11 10 6 5 2 5 6 6 5 8 8 5 5 5 4 3 5 6 4 4 1 1 2 1 1 -1 1 3 4 2 2 2 -3 -2 3 3
5 6 7 7 8 8 8 8 8 8 9 9 9 8 7 6 6 6 4 6 6 7 4 6 5 7 2 3 6 8 7 5 5 -0 -0 -2 1 -1 -1 2 -3 -4 -1 -1 -2 -1 0
5 5 5 6 7 8 8 8 8 8 8 8 8 8 8 5 4 3 4 7 5 7 9 9 7 5 3 4 6 6 6 5 4 -0 -1 -3 -2 -1 4 -0 -0 3 2 -1 -8 -11 -4
5 5 5 6 7 7 8 8 8 8 8 8 8 8 8 3 2 3 7 7 6 7 6 9 8 5 6 5 4 4 3 2 2 2 1 -2 -2 -1 0 0 2 3 -7 -6 -3 -7 -6
6 6 5 5 6 7 7 7 8 8 8 8 8 7 7 4 7 6 7 7 7 8 6 7 7 5 4 3 3 3 3 2 -1 -4 -1 -1 -1 0 1 -1 0 3 -2 -4 -3 -0 -4
6 6 5 6 6 6 6 6 6 6 7 7 6 6 6 5 5 7 7 8 6 6 4 4 3 2 2 1 2 4 6 5 3 -3 -5 -3 -2 -1 -3 -1 1 1 1 -0 -3 -1 0
5 6 6 6 6 6 6 6 6 6 5 5 5 4 3 4 5 5 5 5 6 4 2 1 1 0 1 0 2 2 4 3 3 0 -7 -7 -6 -2 -2 -1 -2 -0 1 0 1 2 1
4 4 4 4 5 5 4 4 4 4 4 4 4 3 3 1 3 4 4 4 4 4 3 1 1 -2 -3 0 2 1 1 -1 -0 -2 -4 -3 -3 -4 -4 -2 -1 0 -1 2 1 1 0
2 3 3 3 3 3 3 3 3 3 3 3 2 2 1 -1 2 4 4 3 2 2 2 3 4 1 1 0 -1 0 2 -1 -2 2 -3 0 -0 -1 -1 -1 2 1 4 2 1 -0 -2
Height
1554 1554 1554 1553 1551 1550 1548 1547 1545 1543 1542 1540 1538 1538 1537 1535 1534 1534 1533 1533 1532 1531 1531 1529 1527 1524 1524 1523 1525 1522 1519 1516 1514 1512 1509 1509 1508 1510 1516 1519 1521 1524 1529 1530 1531 1531 1531
1556 1556 1555 1554 1553 1551 1550 1548 1547 1545 1543 1541 1540 1538 1537 1536 1535 1535 1534 1533 1532 1531 1530 1530 1529 1528 1525 1526 1527 1522 1519 1517 1516 1513 1511 1510 1511 1512 1515 1521 1523 1527 1529 1530 1531 1531 1530
1558 1558 1558 1556 1555 1553 1552 1550 1548 1547 1545 1543 1541 1540 1538 1537 1536 1536 1534 1532 1532 1531 1530 1530 1529 1529 1528 1532 1527 1523 1520 1518 1516 1515 1514 1513 1513 1514 1517 1523 1526 1527 1529 1531 1532 1531 1530
1560 1560 1559 1558 1556 1555 1554 1552 1550 1548 1546 1544 1542 1540 1539 1537 1536 1536 1535 1534 1533 1532 1531 1531 1530 1529 1530 1530 1528 1525 1522 1520 1518 1518 1517 1516 1516 1516 1520 1526 1527 1530 1532 1535 1534 1532 1530
1562 1561 1560 1559 1558 1557 1555 1553 1551 1549 1547 1545 1542 1540 1539 1537 1536 1536 1536 1535 1533 1532 1532 1531 1531 1530 1532 1532 1529 1525 1523 1522 1521 1520 1519 1518 1518 1521 1526 1530 1535 1539 1540 1538 1535 1535 1534
1564 1563 1562 1561 1560 1558 1557 1555 1553 1551 1548 1546 1543 1541 1539 1537 1536 1535 1535 1535 1534 1533 1533 1532 1532 1534 1535 1534 1531 1527 1524 1523 1522 1521 1521 1520 1521 1532 1540 1540 1556 1544 1544 1543 1542 1538 1535
1565 1564 1563 1562 1561 1559 1558 1556 1554 1552 1549 1546 1544 1542 1539 1537 1535 1534 1534 1535 1538 1537 1534 1538 1540 1538 1537 1535 1533 1529 1525 1524 1523 1522 1530 1528 1540 1554 1552 1552 1550 1549 1549 1549 1542 1542 1540
1566 1565 1564 1564 1562 1561 1559 1557 1555 1553 1550 1547 1545 1543 1540 1537 1535 1533 1534 1534 1534 1538 1540 1540 1539 1539 1537 1535 1533 1531 1528 1527 1527 1535 1532 1537 1551 1552 1551 1550 1549 1549 1549 1551 1541 1541 1545
1567 1566 1566 1565 1563 1561 1560 1558 1556 1553 1551 1548 1546 1543 1540 1537 1536 1535 1534 1535 1536 1537 1538 1541 1540 1539 1539 1538 1537 1535 1532 1532 1534 1540 1544 1543 1551 1551 1550 1551 1551 1548 1550 1551 1556 1547 1543
1567 1567 1567 1565 1564 1563 1561 1559 1557 1554 1551 1549 1546 1543 1540 1537 1539 1536 1536 1537 1537 1537 1548 1546 1542 1543 1541 1538 1540 1539 1536 1537 1537 1544 1549 1553 1553 1552 1551 1551 1555 1554 1553 1554 1555 1559 1552
1568 1568 1568 1566 1565 1563 1562 1560 1557 1554 1551 1549 1546 1544 1541 1539 1538 1537 1538 1537 1537 1539 1580 1548 1545 1544 1542 1542 1544 1542 1539 1537 1543 1547 1548 1550 1554 1553 1550 1554 1555 1553 1554 1555 1555 1571 1572
1570 1569 1568 1568 1566 1564 1562 1560 1557 1554 1552 1549 1547 1545 1542 1540 1539 1538 1538 1538 1539 1559 1578 1549 1547 1547 1544 1544 1544 1542 1541 1540 1544 1545 1548 1554 1555 1556 1556 1555 1555 1555 1553 1553 1560 1567 1560
1570 1570 1569 1568 1567 1565 1563 1560 1558 1555 1552 1549 1547 1545 1543 1541 1540 1539 1539 1540 1557 1572 1552 1554 1554 1552 1552 1552 1548 1548 1552 1557 1561 1555 1558 1553 1555 1557 1557 1555 1554 1556 1559 1561 1551 1559 1543
1570 1570 1569 1568 1567 1566 1563 1561 1558 1555 1552 1549 1547 1546 1544 1541 1540 1539 1539 1542 1555 1554 1555 1557 1555 1553 1552 1555 1554 1554 1556 1564 1564 1563 1576 1574 1556 1558 1561 1563 1565 1563 1570 1573 1563 1561 1551
1569 1569 1569 1568 1567 1566 1563 1561 1559 1555 1552 1549 1547 1546 1544 1542 1540 1540 1541 1564 1559 1556 1558 1558 1555 1554 1554 1554 1556 1556 1563 1571 1568 1568 1566 1576 1557 1562 1562 1563 1567 1562 1570 1569 1589 1605 1588
1570 1570 1569 1568 1567 1566 1564 1561 1558 1555 1552 1549 1547 1546 1544 1542 1540 1540 1543 1557 1557 1558 1559 1559 1554 1558 1556 1558 1555 1558 1558 1566 1567 1566 1566 1569 1574 1560 1565 1565 1567 1568 1571 1570 1584 1571 1565
1569 1569 1569 1568 1567 1565 1563 1561 1559 1556 1552 1549 1547 1545 1545 1542 1541 1540 1559 1562 1558 1558 1558 1559 1558 1559 1564 1563 1559 1560 1563 1563 1562 1565 1566 1571 1575 1558 1563 1564 1566 1573 1579 1581 1581 1582 1576
1570 1569 1569 1568 1568 1566 1564 1561 1559 1556 1552 1549 1546 1547 1546 1543 1544 1552 1559 1558 1558 1558 1559 1559 1560 1563 1562 1561 1560 1559 1558 1558 1560 1561 1567 1569 1574 1575 1551 1567 1567 1568 1569 1572 1553 1553 1571
1570 1569 1569 1569 1568 1566 1564 1562 1560 1557 1554 1550 1548 1547 1547 1543 1558 1560 1559 1558 1557 1558 1558 1559 1559 1559 1561 1561 1565 1558 1555 1559 1559 1559 1565 1565 1568 1557 1543 1565 1567 1568 1573 1575 1569 1560 1549
1570 1569 1569 1569 1568 1567 1565 1563 1561 1558 1555 1553 1551 1552 1549 1547 1553 1556 1557 1557 1557 1557 1558 1558 1559 1560 1561 1560 1561 1559 1554 1558 1559 1560 1561 1561 1567 1553 1539 1533 1544 1548 1556 1570 1551 1546 1522
1571 1570 1569 1568 1568 1567 1565 1564 1562 1560 1557 1555 1555 1557 1558 1561 1557 1557 1557 1558 1556 1556 1558 1558 1559 1559 1561 1563 1556 1559 1555 1558 1559 1559 1560 1561 1565 1556 1543 1537 1543 1539 1536 1548 1546 1526 1529
1571 1570 1568 1568 1567 1567 1566 1565 1563 1562 1559 1558 1558 1559 1558 1557 1558 1558 1557 1555 1555 1554 1556 1556 1557 1552 1557 1559 1550 1545 1547 1551 1548 1557 1559 1560 1553 1555 1549 1537 1545 1547 1530 1523 1527 1528 1521
1571 1570 1569 1568 1567 1567 1566 1565 1564 1563 1561 1560 1560 1560 1560 1559 1558 1560 1557 1552 1553 1552 1549 1548 1548 1550 1552 1544 1542 1542 1542 1540 1541 1549 1554 1558 1555 1555 1522 1540 1537 1518 1499 1504 1522 1525 1512
1571 1570 1569 1568 1567 1566 1565 1564 1563 1562 1562 1562 1561 1561 1560 1559 1558 1557 1553 1552 1550 1549 1549 1544 1544 1545 1541 1539 1540 1537 1535 1535 1537 1536 1540 1547 1553 1551 1537 1536 1528 1489 1495 1498 1501 1503 1500
1569 1569 1568 1567 1565 1564 1563 1562 1561 1561 1561 1560 1559 1559 1558 1557 1553 1551 1550 1548 1545 1544 1544 1541 1539 1539 1538 1539 1539 1534 1531 1532 1535 1538 1537 1538 1544 1542 1536 1538 1510 1491 1493 1498 1497 1490 1481
1567 1566 1565 1565 1564 1562 1561 1559 1558 1557 1556 1556 1555 1555 1555 1552 1546 1545 1544 1543 1541 1539 1538 1535 1536 1535 1537 1538 1538 1531 1520 1519 1524 1539 1540 1541 1542 1542 1550 1538 1518 1489 1484 1486 1489 1495 1476
1565 1564 1563 1562 1560 1559 1557 1556 1554 1553 1553 1552 1551 1552 1552 1549 1543 1542 1541 1539 1538 1536 1535 1535 1535 1536 1538 1538 1535 1532 1519 1518 1519 1522 1547 1550 1550 1538 1536 1528 1509 1484 1484 1486 1493 1484 1474
1561 1560 1559 1558 1558 1556 1555 1554 1552 1551 1550 1549 1548 1547 1547 1546 1539 1538 1537 1536 1536 1535 1534 1535 1537 1534 1537 1538 1532 1528 1525 1521 1519 1520 1527 1525 1532 1538 1537 1532 1513 1477 1484 1485 1479 1474 1474
1561 1559 1559 1557 1556 1555 1553 1551 1550 1549 1547 1546 1546 1544 1543 1542 1536 1532 1530 1531 1531 1531 1533 1532 1530 1527 1526 1530 1528 1523 1517 1517 1518 1507 1514 1512 1505 1508 1506 1487 1473 1474 1472 1472 1471 1472 1470
Wind_Speed
11 11 11 12 12 13 14 14 14 14 12 11 8 6 6 6 5 4 5 5 2 3 1 12 19 12 4 9 10 13 11 10 11 9 5 3 6 4 5 4 3 5 2 4 3 2 2
11 11 11 12 12 12 13 13 13 14 13 12 10 9 7 6 4 3 4 6 5 2 0 2 4 21 13 8 14 14 12 8 9 14 14 10 8 11 10 5 4 4 6 4 3 3 4
11 11 11 12 12 12 13 12 12 12 13 12 10 8 8 6 2 4 8 4 2 4 2 2 3 2 20 13 17 14 11 10 9 12 16 16 10 2 5 4 6 6 3 2 6 6 2
10 10 11 11 12 12 13 13 13 11 12 13 12 9 7 7 2 5 7 7 8 8 5 5 3 3 6 17 20 11 11 9 10 8 9 11 7 12 7 9 4 4 4 4 2 10 3
9 9 9 10 11 11 12 13 13 12 11 13 12 11 6 7 3 3 4 6 5 3 5 9 6 3 4 9 25 17 13 8 5 8 9 7 5 8 6 3 4 7 1 3 6 6 4
7 7 8 9 10 11 11 12 13 13 12 11 13 12 7 6 7 4 6 4 12 3 2 3 7 2 11 10 18 23 7 10 6 1 3 6 7 5 6 7 1 4 4 4 5 6 5
6 6 7 8 9 10 10 11 12 13 12 11 14 14 9 6 8 4 3 4 2 2 17 12 8 4 10 9 7 23 11 5 6 9 6 8 9 4 3 3 1 0 1 4 4 2 6
5 5 6 8 8 9 10 11 11 12 13 12 11 14 11 6 10 5 2 3 2 9 10 11 8 9 10 12 6 26 11 5 9 5 6 6 4 2 3 1 1 0 2 4 6 1 2
4 5 6 7 7 9 10 10 11 12 13 12 11 12 12 6 8 8 5 8 9 5 3 6 9 9 9 8 8 20 18 6 7 6 7 6 0 3 1 3 5 1 2 2 4 9 1
4 4 5 6 7 8 9 10 12 13 13 13 11 11 11 8 3 4 4 5 3 1 4 7 7 7 9 4 5 17 17 6 7 3 3 6 2 2 1 2 2 4 2 1 5 5 3
3 3 4 5 7 8 10 11 12 13 12 13 11 11 11 7 4 3 2 2 2 2 3 4 5 7 7 7 7 12 13 6 4 3 1 2 4 4 3 2 1 5 2 2 2 3 3
3 3 4 6 7 9 11 12 13 14 13 12 11 10 13 8 8 4 3 3 2 6 4 4 4 8 4 8 6 11 7 7 4 2 5 3 1 2 1 3 2 4 1 1 3 2 3
2 2 4 6 8 10 12 13 14 15 14 11 10 8 13 10 7 4 2 1 5 6 3 4 4 5 0 5 6 9 6 8 4 5 7 4 1 1 3 3 1 6 5 4 5 4 4
1 2 4 6 8 10 11 13 15 16 15 12 9 5 12 10 8 4 1 5 2 2 1 1 2 3 2 4 3 6 2 3 4 2 3 3 6 3 5 3 3 3 4 4 4 2 5
1 2 4 6 8 10 11 13 15 16 15 13 8 3 12 11 8 5 1 4 4 4 1 3 3 2 3 2 0 4 3 3 2 1 4 3 5 2 4 2 2 0 2 2 5 0 3
1 2 3 5 7 10 12 14 15 16 16 13 8 3 12 12 8 4 4 4 3 0 1 1 1 1 2 4 4 5 0 3 2 3 2 3 4 2 1 1 4 3 1 3 3 3 5
2 3 4 5 7 10 12 14 16 16 16 13 6 2 11 12 7 3 3 4 2 2 1 1 1 2 2 2 1 2 2 2 4 4 2 3 3 3 1 4 5 2 3 3 3 3 4
3 3 4 6 8 10 12 15 17 17 16 12 4 2 11 10 4 5 2 1 1 1 0 1 2 3 2 0 2 2 3 4 7 8 4 3 4 3 8 2 2 2 5 4 3 3 2
2 3 5 7 8 9 11 14 17 17 17 15 5 4 8 7 3 2 1 0 1 2 2 2 2 1 3 2 2 3 2 0 7 6 5 5 1 4 6 2 2 3 4 3 2 1 9
2 4 6 7 7 8 11 14 16 15 14 12 5 3 6 9 7 5 2 1 1 2 1 2 1 1 1 2 4 3 3 3 6 3 2 6 1 7 10 11 4 3 5 5 5 4 8
4 6 7 7 6 7 11 12 14 12 12 9 6 3 3 3 5 3 1 1 1 3 2 3 1 5 6 2 3 5 3 2 4 6 4 4 6 5 14 17 6 11 18 11 15 20 11
5 7 7 6 6 8 10 11 13 13 12 8 4 3 2 0 2 2 1 4 5 2 5 3 4 3 7 6 10 14 5 5 6 3 5 3 4 1 5 14 5 7 19 20 17 17 19
6 7 7 7 7 8 11 10 8 12 13 6 7 4 5 2 0 2 4 3 4 3 7 10 12 4 6 17 20 18 12 9 5 9 9 6 3 2 7 1 6 10 12 6 4 4 6
6 7 9 10 10 10 10 10 11 10 10 10 7 6 5 4 2 5 3 6 8 14 7 13 13 7 8 7 9 12 16 15 12 12 15 7 4 3 4 2 5 7 4 6 8 6 15
10 10 11 12 14 13 13 14 15 15 13 12 11 7 6 3 11 9 16 14 17 22 10 14 15 9 8 2 1 4 3 2 1 3 5 4 4 3 3 3 9 7 1 5 7 7 10
14 15 16 15 16 16 17 16 17 16 17 16 14 12 10 5 7 20 12 18 8 6 5 5 10 5 3 2 1 3 4 4 4 2 6 3 2 3 1 4 6 6 3 4 4 5 2
16 17 18 19 18 17 17 18 17 18 16 14 13 11 9 7 17 21 10 5 5 2 2 1 1 1 6 2 3 4 8 5 4 6 5 3 1 10 8 6 10 8 3 2 3 5 3
16 15 14 14 15 15 15 15 15 15 14 14 13 11 11 7 23 22 18 15 13 7 2 3 2 3 1 3 3 4 3 4 1 4 6 8 8 5 3 5 10 12 6 4 1 7 11
9 10 12 13 13 14 14 15 15 15 15 14 13 12 11 12 15 22 24 19 21 25 19 11 11 3 10 2 2 2 3 2 4 5 2 3 7 5 11 8 2 11 10 18 13 13 7
Wind_Direction
86 79 74 68 61 59 56 52 49 47 44 41 37 24 10 356 347 7 57 79 353 300 75 50 42 42 57 51 14 3 358 12 28 25 34 66 63 94 94 92 83 71 110 69 93 63 18
86 78 73 66 63 58 52 46 44 42 38 33 30 26 15 7 28 87 8 321 340 26 260 332 42 49 50 66 11 10 13 35 52 50 56 69 82 97 95 66 69 102 108 102 61 33 335
86 78 72 67 61 54 48 42 39 37 34 30 25 20 22 18 38 357 351 33 81 50 47 10 18 32 39 40 21 17 31 51 63 60 65 66 69 109 102 96 108 124 84 90 25 347 332
88 79 71 64 57 50 44 39 34 29 28 25 20 12 15 18 52 51 51 88 88 60 37 45 35 50 78 30 20 29 32 49 54 59 63 61 72 68 54 110 58 44 56 15 15 5 342
88 79 70 61 52 44 39 35 31 26 23 21 16 11 8 16 356 227 57 41 304 262 57 45 30 60 37 9 15 20 28 38 54 65 59 47 46 64 48 45 31 12 38 351 321 35 324
87 75 67 57 48 41 35 31 28 24 22 21 15 10 0 358 350 278 243 249 50 31 269 343 21 58 18 346 11 13 16 29 30 21 17 40 48 62 26 33 191 322 342 320 256 340 354
90 73 60 50 44 37 32 28 24 21 20 17 16 12 5 7 2 333 237 215 253 44 68 74 44 48 1 3 17 14 20 20 27 52 35 27 60 48 327 5 323 249 265 271 262 63 336
89 72 57 45 37 32 27 21 17 15 14 13 7 9 9 2 18 24 177 196 161 134 82 56 41 32 15 13 8 17 28 48 45 45 340 32 59 284 281 307 305 234 304 289 287 343 14
93 70 55 41 31 27 19 14 10 8 9 6 3 4 6 1 26 41 89 116 125 128 79 30 27 19 17 11 33 6 17 30 59 50 20 100 107 313 307 38 10 252 198 336 251 323 232
96 69 54 37 26 21 11 7 5 5 6 5 5 6 7 11 28 40 100 112 80 91 73 329 357 8 357 15 42 11 13 31 39 96 74 83 339 347 343 57 9 320 73 358 301 18 274
96 71 45 31 19 14 7 3 2 3 3 4 8 12 11 18 17 35 94 123 62 79 36 313 336 349 5 53 330 5 14 44 69 47 96 301 9 16 35 350 69 257 339 275 116 103 41
92 57 31 17 11 8 5 1 1 0 359 2 2 6 12 20 27 40 86 114 71 45 259 4 335 354 15 24 15 344 14 52 76 107 43 100 81 62 270 287 234 328 254 138 62 98 17
82 35 17 9 5 3 3 -0 0 1 359 357 357 357 6 17 18 29 101 98 39 116 2 331 333 12 0 339 356 27 29 13 53 37 10 344 74 71 18 329 159 34 38 336 352 3 225
101 10 5 1 359 358 2 1 359 0 359 355 350 350 7 15 20 22 94 57 101 145 238 355 323 312 34 1 30 10 68 39 53 49 76 60 328 22 1 102 194 24 127 144 261 277 291
152 358 356 355 354 352 357 358 356 356 357 354 344 323 5 9 7 7 170 59 204 195 170 342 315 52 333 32 233 47 49 179 227 110 120 44 278 108 48 95 101 255 40 180 102 148 34
262 330 341 346 352 350 349 352 354 353 353 350 344 313 357 353 350 356 73 197 187 311 26 40 337 69 311 312 8 33 217 225 203 193 205 193 316 86 108 91 51 107 172 36 13 337 294
243 299 320 341 354 350 348 349 351 354 352 347 336 312 350 351 345 30 120 209 194 178 159 49 200 272 215 296 283 292 235 210 198 164 101 131 110 274 129 191 180 34 5 30 124 133 205
250 292 331 351 353 349 350 350 351 352 356 353 342 1 350 349 6 45 87 -0 103 148 84 349 87 135 205 75 276 269 245 215 172 155 141 217 150 270 246 70 135 130 196 152 124 249 208
254 309 337 348 354 346 348 351 353 354 358 360 353 345 359 1 91 21 286 76 176 166 221 190 233 206 200 245 338 219 250 146 170 157 172 183 255 302 300 8 30 176 212 143 115 96 208
280 325 334 342 352 346 347 349 352 357 358 2 348 15 24 51 69 120 157 217 247 221 247 209 180 128 147 252 214 285 252 199 204 210 172 167 237 205 261 260 140 227 208 217 203 221 256
313 325 334 340 350 349 349 353 359 8 7 5 16 63 32 320 7 59 56 293 227 240 221 210 215 223 174 234 248 229 230 171 203 198 167 168 229 226 253 272 260 266 260 219 211 240 242
334 331 334 336 336 346 354 0 6 12 18 26 39 2 15 326 299 319 296 225 200 211 155 218 215 212 186 201 204 270 212 194 207 149 169 179 247 179 249 260 253 252 259 249 232 242 256
322 333 338 339 349 348 343 342 350 3 12 27 18 2 345 300 21 91 231 231 229 174 243 235 219 184 206 235 253 271 257 250 213 162 190 181 202 177 270 358 305 276 256 201 173 235 171
305 318 323 325 327 332 338 341 340 339 347 342 341 332 305 277 187 211 257 238 224 228 233 263 240 193 255 264 289 279 263 256 233 207 186 164 171 197 278 319 249 244 192 165 187 222 217
283 286 298 305 311 315 318 317 314 310 316 305 297 273 277 252 267 274 266 264 274 279 245 255 264 241 248 298 310 300 252 279 152 33 204 144 160 249 262 228 312 287 302 151 161 277 208
278 278 289 293 294 297 302 308 309 302 297 293 288 274 246 266 239 265 260 271 261 263 284 227 259 259 188 93 177 234 266 236 237 196 22 96 28 198 79 250 257 224 129 154 143 292 327
274 278 285 287 288 293 298 299 299 300 300 297 286 275 252 268 264 265 250 245 256 240 234 267 331 102 173 155 232 246 254 192 240 193 169 114 168 220 225 261 282 262 187 128 100 249 188
282 286 293 298 302 306 309 311 311 310 309 305 295 280 257 253 269 267 265 257 262 251 213 183 332 217 116 193 218 244 226 245 321 148 181 172 169 200 175 229 275 189 114 189 240 269 296
319 318 315 316 314 310 313 315 315 313 311 308 303 296 285 247 264 277 273 267 264 261 272 251 245 203 214 202 242 293 246 192 196 261 81 263 203 203 196 216 263 202 253 286 237 276 279